| time (UTC) | temp C | wind direction | speed KPH | gust KPH | rain 1hr cm | rain 24hr cm | rain mn cm | humidity % | barometer mb |
| 20260508075130 | 8 | 269 | 0.0 | 1.6 | 0.00 | 0.00 | 0.00 | 76 | 1007.0 |
| 20260508074628 | 8 | 269 | 0.0 | 1.6 | 0.00 | 0.00 | 0.00 | 76 | 1007.5 |
| 20260508074125 | 8 | 269 | 0.0 | 0.0 | 0.00 | 0.00 | 0.00 | 75 | 1007.4 |
| 20260508073622 | 8 | 269 | 0.0 | 1.6 | 0.00 | 0.00 | 0.00 | 74 | 1007.4 |
| 20260508073120 | 8 | 269 | 0.0 | 3.2 | 0.00 | 0.00 | 0.00 | 72 | 1007.3 |
| 20260508072614 | 8 | 269 | 1.6 | 3.2 | 0.00 | 0.00 | 0.00 | 72 | 1007.2 |
| 20260508072112 | 8 | 269 | 1.6 | 3.2 | 0.00 | 0.00 | 0.00 | 71 | 1007.4 |
| 20260508071610 | 8 | 270 | 0.0 | 3.2 | 0.00 | 0.00 | 0.00 | 71 | 1007.6 |
| 20260508071108 | 8 | 270 | 1.6 | 3.2 | 0.00 | 0.00 | 0.00 | 70 | 1007.6 |
| 20260508070605 | 8 | 270 | 1.6 | 4.8 | 0.00 | 0.00 | 0.00 | 68 | 1007.6 |
| 20260508065600 | 9 | 281 | 1.6 | 4.8 | 0.00 | 0.00 | 0.00 | 67 | 1007.4 |
| 20260508065058 | 9 | 274 | 3.2 | 3.2 | 0.00 | 0.00 | 0.00 | 67 | 1007.7 |
| 20260508064556 | 8 | 275 | 4.8 | 4.8 | 0.00 | 0.00 | 0.00 | 66 | 1007.5 |
| 20260508064054 | 8 | 348 | 1.6 | 1.6 | 0.00 | 0.00 | 0.00 | 67 | 1007.4 |
| 20260508063551 | 8 | 294 | 1.6 | 3.2 | 0.00 | 0.00 | 0.00 | 65 | 1007.3 |
| 20260508063049 | 8 | 292 | 1.6 | 1.6 | 0.00 | 0.00 | 0.00 | 67 | 1007.6 |
| 20260508062546 | 8 | 293 | 0.0 | 0.0 | 0.00 | 0.00 | 0.00 | 68 | 1007.5 |
| 20260508062042 | 8 | 293 | 0.0 | 0.0 | 0.00 | 0.00 | 0.00 | 67 | 1007.4 |
| 20260508061540 | 8 | 293 | 1.6 | 1.6 | 0.00 | 0.00 | 0.00 | 67 | 1007.7 |
| 20260508061037 | 8 | 293 | 0.0 | 0.0 | 0.00 | 0.00 | 0.00 | 68 | 1007.6 |
| 20260508060534 | 8 | 293 | 0.0 | 1.6 | 0.00 | 0.00 | 0.00 | 68 | 1007.7 |
| 20260508060032 | 8 | 293 | 0.0 | 0.0 | 0.00 | 0.00 | 0.00 | 67 | 1007.5 |
| 20260508055527 | 8 | 293 | 0.0 | 0.0 | 0.00 | 0.00 | 0.00 | 68 | 1007.4 |
| 20260508055024 | 8 | 293 | 0.0 | 1.6 | 0.00 | 0.00 | 0.00 | 67 | 1007.5 |
| 20260508054520 | 8 | 293 | 1.6 | 1.6 | 0.00 | 0.00 | 0.00 | 68 | 1007.5 |
| 20260508054018 | 8 | 293 | 0.0 | 0.0 | 0.00 | 0.00 | 0.00 | 69 | 1008.0 |
| 20260508053514 | 8 | 293 | 0.0 | 0.0 | 0.00 | 0.00 | 0.00 | 69 | 1007.8 |
| 20260508053013 | 8 | 293 | 0.0 | 0.0 | 0.00 | 0.00 | 0.00 | 68 | 1008.1 |
| 20260508052510 | 8 | 293 | 0.0 | 0.0 | 0.00 | 0.00 | 0.00 | 67 | 1007.9 |
| 20260508052006 | 8 | 293 | 0.0 | 0.0 | 0.00 | 0.00 | 0.00 | 68 | 1007.8 |
| 20260508051503 | 8 | 293 | 0.0 | 0.0 | 0.00 | 0.00 | 0.00 | 69 | 1008.0 |
| 20260508050957 | 8 | 293 | 0.0 | 0.0 | 0.00 | 0.00 | 0.00 | 68 | 1008.2 |
| 20260508050454 | 8 | 293 | 0.0 | 0.0 | 0.00 | 0.00 | 0.00 | 68 | 1008.2 |
| 20260508045951 | 8 | 293 | 0.0 | 0.0 | 0.00 | 0.00 | 0.00 | 68 | 1008.1 |
| 20260508045448 | 8 | 293 | 0.0 | 0.0 | 0.00 | 0.00 | 0.00 | 67 | 1008.2 |
| 20260508044946 | 8 | 293 | 0.0 | 0.0 | 0.00 | 0.00 | 0.00 | 68 | 1008.1 |
| 20260508044443 | 8 | 293 | 0.0 | 0.0 | 0.00 | 0.00 | 0.00 | 66 | 1008.0 |
| 20260508043938 | 8 | 293 | 0.0 | 0.0 | 0.00 | 0.00 | 0.00 | 67 | 1008.0 |
| 20260508043436 | 8 | 293 | 0.0 | 0.0 | 0.00 | 0.00 | 0.00 | 68 | 1008.0 |
| 20260508042931 | 8 | 293 | 0.0 | 0.0 | 0.00 | 0.00 | 0.00 | 67 | 1008.2 |
| 20260508042430 | 8 | 293 | 0.0 | 0.0 | 0.00 | 0.00 | 0.00 | 67 | 1008.2 |
| 20260508041926 | 8 | 293 | 0.0 | 0.0 | 0.00 | 0.00 | 0.00 | 67 | 1008.1 |
| 20260508041423 | 8 | 293 | 0.0 | 0.0 | 0.00 | 0.00 | 0.00 | 68 | 1008.0 |
| 20260508040920 | 8 | 293 | 0.0 | 0.0 | 0.00 | 0.00 | 0.00 | 65 | 1008.1 |
| 20260508040417 | 8 | 293 | 0.0 | 0.0 | 0.00 | 0.00 | 0.00 | 66 | 1008.0 |
| 20260508035915 | 8 | 293 | 0.0 | 0.0 | 0.00 | 0.00 | 0.00 | 65 | 1008.0 |
| 20260508035411 | 8 | 293 | 0.0 | 0.0 | 0.00 | 0.00 | 0.00 | 65 | 1008.0 |
| 20260508034908 | 8 | 293 | 0.0 | 1.6 | 0.00 | 0.00 | 0.00 | 64 | 1008.1 |
| 20260508034406 | 8 | 293 | 0.0 | 0.0 | 0.00 | 0.00 | 0.00 | 64 | 1008.2 |
| 20260508033902 | 8 | 293 | 0.0 | 1.6 | 0.00 | 0.00 | 0.00 | 64 | 1008.1 |
| 20260508033400 | 8 | 293 | 0.0 | 1.6 | 0.00 | 0.00 | 0.00 | 63 | 1008.3 |
| 20260508032857 | 8 | 304 | 3.2 | 3.2 | 0.00 | 0.00 | 0.00 | 60 | 1008.2 |
| 20260508032349 | 8 | 310 | 1.6 | 1.6 | 0.00 | 0.00 | 0.00 | 60 | 1008.2 |
| 20260508031845 | 8 | 310 | 0.0 | 1.6 | 0.00 | 0.00 | 0.00 | 62 | 1008.0 |
| 20260508031343 | 8 | 310 | 1.6 | 1.6 | 0.00 | 0.00 | 0.00 | 61 | 1008.1 |
| 20260508030838 | 8 | 310 | 1.6 | 1.6 | 0.00 | 0.00 | 0.00 | 60 | 1008.3 |
| 20260508030336 | 8 | 311 | 0.0 | 1.6 | 0.00 | 0.00 | 0.00 | 63 | 1008.1 |
| 20260508025833 | 7 | 311 | 0.0 | 0.0 | 0.00 | 0.00 | 0.00 | 63 | 1008.2 |
| 20260508025330 | 7 | 312 | 0.0 | 1.6 | 0.00 | 0.00 | 0.00 | 64 | 1008.2 |
| 20260508024827 | 7 | 312 | 1.6 | 1.6 | 0.00 | 0.00 | 0.00 | 63 | 1008.1 |
| 20260508024323 | 7 | 313 | 0.0 | 1.6 | 0.00 | 0.00 | 0.00 | 63 | 1008.2 |
| 20260508023820 | 7 | 313 | 1.6 | 1.6 | 0.00 | 0.00 | 0.00 | 63 | 1008.1 |
| 20260508023316 | 7 | 314 | 0.0 | 0.0 | 0.00 | 0.00 | 0.00 | 65 | 1008.2 |
| 20260508022813 | 7 | 314 | 0.0 | 0.0 | 0.00 | 0.00 | 0.00 | 63 | 1008.1 |
| 20260508022309 | 7 | 314 | 0.0 | 0.0 | 0.00 | 0.00 | 0.00 | 61 | 1008.2 |
| 20260508021807 | 7 | 314 | 0.0 | 0.0 | 0.00 | 0.00 | 0.00 | 59 | 1008.1 |
| 20260508021302 | 7 | 315 | 0.0 | 0.0 | 0.00 | 0.00 | 0.00 | 58 | 1007.9 |
| 20260508020758 | 7 | 315 | 0.0 | 0.0 | 0.00 | 0.00 | 0.00 | 58 | 1008.0 |
| 20260508020256 | 8 | 315 | 0.0 | 0.0 | 0.00 | 0.00 | 0.00 | 58 | 1008.0 |
| 20260508015753 | 8 | 315 | 0.0 | 0.0 | 0.00 | 0.00 | 0.00 | 57 | 1007.9 |
| 20260508015251 | 8 | 315 | 0.0 | 0.0 | 0.00 | 0.00 | 0.00 | 58 | 1007.7 |
| 20260508014747 | 8 | 315 | 0.0 | 0.0 | 0.00 | 0.00 | 0.00 | 58 | 1007.9 |
| 20260508014244 | 8 | 315 | 0.0 | 0.0 | 0.00 | 0.00 | 0.00 | 57 | 1007.9 |
| 20260508013740 | 8 | 315 | 0.0 | 0.0 | 0.00 | 0.00 | 0.00 | 56 | 1007.9 |
| 20260508013236 | 8 | 315 | 0.0 | 0.0 | 0.00 | 0.00 | 0.00 | 55 | 1007.7 |
| 20260508012734 | 8 | 315 | 0.0 | 0.0 | 0.00 | 0.00 | 0.00 | 54 | 1007.7 |
| 20260508012231 | 8 | 315 | 0.0 | 0.0 | 0.00 | 0.00 | 0.00 | 52 | 1007.7 |
| 20260508011729 | 8 | 315 | 0.0 | 0.0 | 0.00 | 0.00 | 0.00 | 50 | 1007.7 |
| 20260508011226 | 8 | 315 | 0.0 | 0.0 | 0.00 | 0.00 | 0.00 | 51 | 1007.7 |
| 20260508010723 | 9 | 315 | 0.0 | 0.0 | 0.00 | 0.00 | 0.00 | 49 | 1007.7 |
| 20260508010221 | 9 | 315 | 0.0 | 0.0 | 0.00 | 0.00 | 0.00 | 48 | 1007.7 |
| 20260508005718 | 9 | 315 | 0.0 | 0.0 | 0.00 | 0.00 | 0.00 | 49 | 1007.6 |
| 20260508005214 | 9 | 315 | 0.0 | 0.0 | 0.00 | 0.00 | 0.00 | 49 | 1007.5 |
| 20260508004710 | 9 | 315 | 0.0 | 0.0 | 0.00 | 0.00 | 0.00 | 48 | 1007.7 |
| 20260508004206 | 10 | 315 | 0.0 | 0.0 | 0.00 | 0.00 | 0.00 | 48 | 1007.6 |
| 20260508003703 | 10 | 315 | 0.0 | 0.0 | 0.00 | 0.00 | 0.00 | 48 | 1007.6 |
| 20260508003201 | 10 | 315 | 0.0 | 0.0 | 0.00 | 0.00 | 0.00 | 48 | 1007.5 |
| 20260508002657 | 10 | 315 | 0.0 | 0.0 | 0.00 | 0.00 | 0.00 | 49 | 1007.5 |
| 20260508002155 | 10 | 315 | 0.0 | 0.0 | 0.00 | 0.00 | 0.00 | 50 | 1007.6 |
| 20260508001650 | 11 | 315 | 0.0 | 0.0 | 0.00 | 0.00 | 0.00 | 46 | 1007.4 |
| 20260508001146 | 11 | 315 | 0.0 | 0.0 | 0.00 | 0.00 | 0.00 | 44 | 1007.3 |
| 20260508000642 | 11 | 315 | 1.6 | 1.6 | 0.00 | 0.00 | 0.00 | 44 | 1007.5 |
| 20260508000139 | 11 | 316 | 1.6 | 1.6 | 0.00 | 0.00 | 0.00 | 45 | 1007.4 |
| 20260507235636 | 11 | 316 | 1.6 | 1.6 | 0.00 | 0.00 | 0.00 | 43 | 1007.2 |
| 20260507235134 | 11 | 317 | 1.6 | 3.2 | 0.00 | 0.00 | 0.00 | 43 | 1007.2 |
| 20260507234630 | 11 | 294 | 4.8 | 4.8 | 0.00 | 0.00 | 0.00 | 41 | 1007.2 |
| 20260507234126 | 11 | 306 | 4.8 | 4.8 | 0.00 | 0.00 | 0.00 | 40 | 1007.2 |
| 20260507233623 | 11 | 295 | 4.8 | 4.8 | 0.00 | 0.00 | 0.00 | 41 | 1006.9 |
| 20260507233122 | 11 | 347 | 3.2 | 4.8 | 0.00 | 0.00 | 0.00 | 40 | 1007.2 |
| 20260507232618 | 11 | 318 | 3.2 | 3.2 | 0.00 | 0.00 | 0.00 | 40 | 1007.2 |
| 20260507232116 | 11 | 305 | 3.2 | 8.0 | 0.00 | 0.00 | 0.00 | 40 | 1006.9 |
| 20260507231612 | 11 | 301 | 3.2 | 4.8 | 0.00 | 0.00 | 0.00 | 39 | 1007.0 |
| 20260507231109 | 12 | 311 | 6.4 | 8.0 | 0.00 | 0.00 | 0.00 | 39 | 1007.0 |
| 20260507230605 | 12 | 303 | 4.8 | 4.8 | 0.00 | 0.00 | 0.00 | 39 | 1007.3 |
| 20260507225557 | 12 | 300 | 6.4 | 8.0 | 0.00 | 0.00 | 0.00 | 38 | 1007.4 |
| 20260507225054 | 12 | 333 | 1.6 | 4.8 | 0.00 | 0.00 | 0.00 | 38 | 1007.3 |
| 20260507224549 | 12 | 308 | 3.2 | 4.8 | 0.00 | 0.00 | 0.00 | 39 | 1007.3 |
| 20260507224046 | 12 | 308 | 3.2 | 3.2 | 0.00 | 0.00 | 0.00 | 39 | 1007.4 |
| 20260507223542 | 12 | 302 | 1.6 | 3.2 | 0.00 | 0.00 | 0.00 | 40 | 1007.5 |
| 20260507223040 | 12 | 319 | 4.8 | 12.9 | 0.00 | 0.00 | 0.00 | 38 | 1007.0 |
| 20260507222537 | 12 | 298 | 4.8 | 4.8 | 0.00 | 0.00 | 0.00 | 38 | 1007.4 |
| 20260507222033 | 12 | 308 | 8.0 | 8.0 | 0.00 | 0.00 | 0.00 | 38 | 1007.2 |
| 20260507221529 | 12 | 282 | 6.4 | 8.0 | 0.00 | 0.00 | 0.00 | 37 | 1007.3 |
| 20260507221026 | 12 | 316 | 9.7 | 11.3 | 0.00 | 0.00 | 0.00 | 36 | 1007.4 |
| 20260507220523 | 12 | 281 | 4.8 | 8.0 | 0.00 | 0.00 | 0.00 | 39 | 1007.3 |
| 20260507220021 | 12 | 276 | 6.4 | 9.7 | 0.00 | 0.00 | 0.00 | 37 | 1007.0 |
| 20260507215517 | 12 | 316 | 4.8 | 8.0 | 0.00 | 0.00 | 0.00 | 39 | 1007.2 |
| 20260507215015 | 12 | 278 | 4.8 | 8.0 | 0.00 | 0.00 | 0.00 | 39 | 1007.3 |
| 20260507214512 | 12 | 295 | 3.2 | 4.8 | 0.00 | 0.00 | 0.00 | 38 | 1006.9 |
| 20260507214007 | 12 | 309 | 4.8 | 8.0 | 0.00 | 0.00 | 0.00 | 38 | 1007.0 |
| 20260507213504 | 12 | 309 | 4.8 | 9.7 | 0.00 | 0.00 | 0.00 | 39 | 1007.0 |
| 20260507213001 | 12 | 324 | 4.8 | 9.7 | 0.00 | 0.00 | 0.00 | 39 | 1006.9 |
| 20260507212457 | 12 | 291 | 6.4 | 9.7 | 0.00 | 0.00 | 0.00 | 42 | 1006.9 |
| 20260507211954 | 12 | 292 | 6.4 | 9.7 | 0.00 | 0.00 | 0.00 | 44 | 1006.9 |
| 20260507211450 | 12 | 303 | 4.8 | 4.8 | 0.00 | 0.00 | 0.00 | 45 | 1007.0 |
| 20260507210947 | 12 | 293 | 6.4 | 8.0 | 0.00 | 0.00 | 0.00 | 44 | 1006.9 |
| 20260507210444 | 12 | 285 | 3.2 | 9.7 | 0.00 | 0.00 | 0.00 | 45 | 1006.8 |
| 20260507205941 | 12 | 294 | 6.4 | 8.0 | 0.00 | 0.00 | 0.00 | 47 | 1006.7 |
| 20260507205438 | 12 | 309 | 4.8 | 8.0 | 0.00 | 0.00 | 0.00 | 47 | 1006.9 |
| 20260507204934 | 12 | 299 | 1.6 | 4.8 | 0.00 | 0.00 | 0.00 | 46 | 1006.8 |
| 20260507204431 | 11 | 321 | 1.6 | 3.2 | 0.00 | 0.00 | 0.00 | 50 | 1006.4 |
| 20260507203928 | 11 | 291 | 3.2 | 4.8 | 0.00 | 0.00 | 0.00 | 52 | 1006.7 |
| 20260507203426 | 12 | 310 | 3.2 | 3.2 | 0.00 | 0.00 | 0.00 | 50 | 1006.6 |
| 20260507202922 | 12 | 297 | 4.8 | 4.8 | 0.00 | 0.00 | 0.00 | 50 | 1006.7 |
| 20260507202419 | 12 | 289 | 4.8 | 8.0 | 0.00 | 0.00 | 0.00 | 48 | 1006.6 |
| 20260507201914 | 12 | 304 | 6.4 | 8.0 | 0.00 | 0.00 | 0.00 | 48 | 1006.7 |
| 20260507201410 | 12 | 339 | 1.6 | 4.8 | 0.00 | 0.00 | 0.00 | 48 | 1006.6 |
| 20260507200907 | 12 | 323 | 4.8 | 8.0 | 0.00 | 0.00 | 0.00 | 50 | 1006.4 |
| 20260507200403 | 12 | 326 | 3.2 | 8.0 | 0.00 | 0.00 | 0.00 | 48 | 1006.4 |
| 20260507195858 | 12 | 294 | 4.8 | 4.8 | 0.00 | 0.00 | 0.00 | 47 | 1006.4 |
| 20260507195356 | 12 | 282 | 3.2 | 9.7 | 0.00 | 0.00 | 0.00 | 46 | 1006.7 |
| 20260507194853 | 12 | 251 | 1.6 | 3.2 | 0.00 | 0.00 | 0.00 | 47 | 1006.3 |
| 20260507194350 | 13 | 283 | 4.8 | 4.8 | 0.00 | 0.00 | 0.00 | 45 | 1006.5 |
| 20260507193846 | 13 | 279 | 3.2 | 9.7 | 0.00 | 0.00 | 0.00 | 41 | 1006.4 |
| 20260507193343 | 13 | 279 | 6.4 | 8.0 | 0.00 | 0.00 | 0.00 | 45 | 1006.5 |
| 20260507192839 | 12 | 286 | 3.2 | 8.0 | 0.00 | 0.00 | 0.00 | 43 | 1006.6 |
| 20260507192336 | 13 | 267 | 4.8 | 8.0 | 0.00 | 0.00 | 0.00 | 42 | 1006.6 |
| 20260507191832 | 12 | 290 | 4.8 | 8.0 | 0.00 | 0.00 | 0.00 | 43 | 1006.6 |
| 20260507191329 | 12 | 357 | 4.8 | 4.8 | 0.00 | 0.00 | 0.00 | 46 | 1006.5 |
| 20260507190826 | 13 | 353 | 1.6 | 4.8 | 0.00 | 0.00 | 0.00 | 45 | 1006.4 |
| 20260507190324 | 12 | 277 | 0.0 | 1.6 | 0.00 | 0.00 | 0.00 | 48 | 1006.9 |
| 20260507185823 | 12 | 293 | 4.8 | 4.8 | 0.00 | 0.00 | 0.00 | 48 | 1006.8 |
| 20260507185319 | 12 | 331 | 3.2 | 4.8 | 0.00 | 0.00 | 0.00 | 47 | 1006.8 |
| 20260507184816 | 12 | 307 | 3.2 | 4.8 | 0.00 | 0.00 | 0.00 | 47 | 1006.6 |
| 20260507184314 | 13 | 307 | 4.8 | 4.8 | 0.00 | 0.00 | 0.00 | 47 | 1006.8 |
| 20260507183811 | 13 | 275 | 1.6 | 4.8 | 0.00 | 0.00 | 0.00 | 48 | 1006.7 |
| 20260507183308 | 13 | 355 | 0.0 | 4.8 | 0.00 | 0.00 | 0.00 | 45 | 1006.7 |
| 20260507182805 | 12 | 310 | 1.6 | 3.2 | 0.00 | 0.00 | 0.00 | 49 | 1006.9 |
| 20260507182300 | 12 | 314 | 4.8 | 4.8 | 0.00 | 0.00 | 0.00 | 52 | 1006.9 |
| 20260507181757 | 12 | 325 | 4.8 | 4.8 | 0.00 | 0.00 | 0.00 | 50 | 1006.9 |
| 20260507181253 | 12 | 352 | 4.8 | 4.8 | 0.00 | 0.00 | 0.00 | 51 | 1006.9 |
| 20260507180750 | 12 | 294 | 4.8 | 4.8 | 0.00 | 0.00 | 0.00 | 48 | 1006.9 |
| 20260507180247 | 12 | 299 | 1.6 | 3.2 | 0.00 | 0.00 | 0.00 | 47 | 1006.9 |
| 20260507175742 | 12 | 289 | 3.2 | 3.2 | 0.00 | 0.00 | 0.00 | 48 | 1006.8 |
| 20260507175240 | 12 | 280 | 3.2 | 4.8 | 0.00 | 0.00 | 0.00 | 48 | 1006.9 |
| 20260507174737 | 12 | 313 | 3.2 | 4.8 | 0.00 | 0.00 | 0.00 | 45 | 1006.9 |
| 20260507174235 | 13 | 296 | 0.0 | 8.0 | 0.00 | 0.00 | 0.00 | 45 | 1006.8 |
| 20260507173733 | 13 | 344 | 1.6 | 4.8 | 0.00 | 0.00 | 0.00 | 43 | 1006.9 |
| 20260507173229 | 12 | 294 | 3.2 | 4.8 | 0.00 | 0.00 | 0.00 | 47 | 1007.0 |
| 20260507172726 | 12 | 307 | 3.2 | 3.2 | 0.00 | 0.00 | 0.00 | 45 | 1007.2 |
| 20260507172223 | 13 | 318 | 4.8 | 4.8 | 0.00 | 0.00 | 0.00 | 45 | 1007.2 |
| 20260507171722 | 13 | 294 | 3.2 | 4.8 | 0.00 | 0.00 | 0.00 | 43 | 1006.7 |
| 20260507171220 | 13 | 288 | 3.2 | 3.2 | 0.00 | 0.00 | 0.00 | 44 | 1006.9 |
| 20260507170717 | 14 | 346 | 4.8 | 8.0 | 0.00 | 0.00 | 0.00 | 42 | 1007.2 |
| 20260507170214 | 13 | 268 | 0.0 | 1.6 | 0.00 | 0.00 | 0.00 | 44 | 1007.2 |
| 20260507165709 | 13 | 257 | 1.6 | 3.2 | 0.00 | 0.00 | 0.00 | 46 | 1007.2 |
| 20260507165206 | 12 | 308 | 4.8 | 8.0 | 0.00 | 0.00 | 0.00 | 49 | 1007.2 |
| 20260507164702 | 13 | 348 | 1.6 | 4.8 | 0.00 | 0.00 | 0.00 | 46 | 1007.0 |
| 20260507164159 | 13 | 314 | 3.2 | 4.8 | 0.00 | 0.00 | 0.00 | 45 | 1006.9 |
| 20260507163656 | 13 | 101 | 0.0 | 0.0 | 0.00 | 0.00 | 0.00 | 46 | 1007.0 |
| 20260507163154 | 12 | 327 | 3.2 | 4.8 | 0.00 | 0.00 | 0.00 | 46 | 1007.2 |
| 20260507162650 | 12 | 298 | 1.6 | 4.8 | 0.00 | 0.00 | 0.00 | 49 | 1007.2 |
| 20260507162146 | 12 | 311 | 0.0 | 3.2 | 0.00 | 0.00 | 0.00 | 48 | 1007.2 |
| 20260507161642 | 12 | 326 | 1.6 | 3.2 | 0.00 | 0.00 | 0.00 | 47 | 1007.3 |
| 20260507161139 | 12 | 289 | 0.0 | 0.0 | 0.00 | 0.00 | 0.00 | 49 | 1007.2 |
| 20260507160636 | 12 | 290 | 0.0 | 0.0 | 0.00 | 0.00 | 0.00 | 50 | 1007.2 |
| 20260507160133 | 12 | 304 | 3.2 | 8.0 | 0.00 | 0.00 | 0.00 | 49 | 1007.2 |
| 20260507155628 | 12 | 287 | 0.0 | 1.6 | 0.00 | 0.00 | 0.00 | 46 | 1007.4 |
| 20260507155125 | 12 | 308 | 3.2 | 4.8 | 0.00 | 0.00 | 0.00 | 45 | 1007.3 |
| 20260507154621 | 12 | 328 | 1.6 | 1.6 | 0.00 | 0.00 | 0.00 | 46 | 1007.0 |
| 20260507154119 | 13 | 292 | 3.2 | 3.2 | 0.00 | 0.00 | 0.00 | 47 | 1007.3 |
| 20260507153615 | 13 | 59 | 0.0 | 4.8 | 0.00 | 0.00 | 0.00 | 44 | 1007.3 |
| 20260507153112 | 13 | 256 | 1.6 | 3.2 | 0.00 | 0.00 | 0.00 | 45 | 1007.2 |
| 20260507152608 | 13 | 264 | 4.8 | 4.8 | 0.00 | 0.00 | 0.00 | 43 | 1007.4 |
| 20260507152104 | 13 | 226 | 3.2 | 4.8 | 0.00 | 0.00 | 0.00 | 47 | 1007.5 |
| 20260507151600 | 13 | 242 | 4.8 | 4.8 | 0.00 | 0.00 | 0.00 | 43 | 1007.2 |
| 20260507151057 | 13 | 78 | 0.0 | 3.2 | 0.00 | 0.00 | 0.00 | 44 | 1007.5 |
| 20260507150555 | 12 | 257 | 1.6 | 3.2 | 0.00 | 0.00 | 0.00 | 47 | 1007.4 |
| 20260507150051 | 12 | 58 | 0.0 | 0.0 | 0.00 | 0.00 | 0.00 | 48 | 1007.5 |
| 20260507145546 | 12 | 306 | 0.0 | 3.2 | 0.00 | 0.00 | 0.00 | 50 | 1007.5 |
| 20260507145044 | 13 | 334 | 0.0 | 0.0 | 0.00 | 0.00 | 0.00 | 46 | 1007.4 |
| 20260507144540 | 13 | 318 | 0.0 | 4.8 | 0.00 | 0.00 | 0.00 | 49 | 1007.3 |
| 20260507144038 | 13 | 288 | 0.0 | 0.0 | 0.00 | 0.00 | 0.00 | 46 | 1007.3 |
| 20260507143535 | 13 | 265 | 0.0 | 0.0 | 0.00 | 0.00 | 0.00 | 44 | 1007.2 |
| 20260507143033 | 12 | 257 | 1.6 | 3.2 | 0.00 | 0.00 | 0.00 | 49 | 1007.6 |
| 20260507142527 | 12 | 231 | 1.6 | 1.6 | 0.00 | 0.00 | 0.00 | 49 | 1007.5 |
| 20260507142025 | 12 | 32 | 1.6 | 3.2 | 0.00 | 0.00 | 0.00 | 53 | 1007.4 |
| 20260507141521 | 12 | 54 | 0.0 | 0.0 | 0.00 | 0.00 | 0.00 | 50 | 1007.5 |
| 20260507141018 | 12 | 30 | 0.0 | 1.6 | 0.00 | 0.00 | 0.00 | 51 | 1007.6 |
| 20260507140515 | 12 | 90 | 1.6 | 3.2 | 0.00 | 0.00 | 0.00 | 54 | 1007.7 |
| 20260507140012 | 12 | 193 | 1.6 | 3.2 | 0.00 | 0.00 | 0.00 | 55 | 1007.7 |
| 20260507135509 | 12 | 30 | 0.0 | 3.2 | 0.00 | 0.00 | 0.00 | 57 | 1007.8 |
| 20260507135006 | 12 | 346 | 0.0 | 3.2 | 0.00 | 0.00 | 0.00 | 56 | 1008.0 |
| 20260507134502 | 12 | 34 | 0.0 | 0.0 | 0.00 | 0.00 | 0.00 | 57 | 1007.7 |
| 20260507133958 | 12 | 76 | 0.0 | 0.0 | 0.00 | 0.00 | 0.00 | 56 | 1007.9 |
| 20260507133454 | 11 | 65 | 0.0 | 0.0 | 0.00 | 0.00 | 0.00 | 57 | 1007.9 |
| 20260507132953 | 11 | 32 | 0.0 | 0.0 | 0.00 | 0.00 | 0.00 | 60 | 1008.0 |
| 20260507132449 | 11 | 250 | 0.0 | 0.0 | 0.00 | 0.00 | 0.00 | 59 | 1007.8 |
| 20260507131945 | 11 | 247 | 0.0 | 0.0 | 0.00 | 0.00 | 0.00 | 60 | 1008.0 |
| 20260507131442 | 11 | 248 | 0.0 | 0.0 | 0.00 | 0.00 | 0.00 | 61 | 1008.0 |
| 20260507130939 | 10 | 242 | 0.0 | 0.0 | 0.00 | 0.00 | 0.00 | 64 | 1008.1 |
| 20260507130436 | 10 | 235 | 0.0 | 1.6 | 0.00 | 0.00 | 0.00 | 63 | 1008.1 |
| 20260507125935 | 10 | 226 | 0.0 | 0.0 | 0.00 | 0.00 | 0.00 | 66 | 1008.0 |
| 20260507125433 | 10 | 219 | 0.0 | 0.0 | 0.00 | 0.00 | 0.00 | 66 | 1008.0 |
| 20260507124930 | 10 | 219 | 0.0 | 0.0 | 0.00 | 0.00 | 0.00 | 68 | 1008.0 |
| 20260507124426 | 10 | 218 | 0.0 | 0.0 | 0.00 | 0.00 | 0.00 | 68 | 1008.1 |
| 20260507123925 | 9 | 219 | 0.0 | 0.0 | 0.00 | 0.00 | 0.00 | 66 | 1008.2 |
| 20260507123422 | 9 | 221 | 0.0 | 0.0 | 0.00 | 0.00 | 0.00 | 70 | 1008.1 |
| 20260507122918 | 9 | 221 | 0.0 | 0.0 | 0.00 | 0.00 | 0.00 | 69 | 1007.7 |
| 20260507122413 | 8 | 221 | 0.0 | 0.0 | 0.00 | 0.00 | 0.00 | 70 | 1008.0 |
| 20260507121910 | 8 | 266 | 0.0 | 0.0 | 0.00 | 0.00 | 0.00 | 70 | 1007.9 |
| 20260507121405 | 8 | 266 | 0.0 | 0.0 | 0.00 | 0.00 | 0.00 | 70 | 1007.9 |
| 20260507120902 | 8 | 266 | 0.0 | 0.0 | 0.00 | 0.00 | 0.00 | 72 | 1007.8 |
| 20260507120358 | 8 | 267 | 1.6 | 3.2 | 0.00 | 0.00 | 0.00 | 70 | 1008.0 |
| 20260507115854 | 8 | 254 | 0.0 | 1.6 | 0.00 | 0.00 | 0.00 | 72 | 1007.7 |
| 20260507115350 | 8 | 225 | 0.0 | 0.0 | 0.00 | 0.00 | 0.00 | 71 | 1007.8 |
| 20260507114846 | 8 | 226 | 0.0 | 0.0 | 0.00 | 0.00 | 0.00 | 72 | 1008.0 |
| 20260507114343 | 8 | 221 | 0.0 | 0.0 | 0.00 | 0.00 | 0.00 | 72 | 1007.7 |
| 20260507113841 | 8 | 220 | 0.0 | 0.0 | 0.00 | 0.00 | 0.00 | 73 | 1008.0 |
| 20260507113338 | 7 | 220 | 0.0 | 0.0 | 0.00 | 0.00 | 0.00 | 73 | 1007.9 |
| 20260507112835 | 7 | 115 | 0.0 | 0.0 | 0.00 | 0.00 | 0.00 | 78 | 1007.9 |
| 20260507112332 | 6 | 114 | 0.0 | 0.0 | 0.00 | 0.00 | 0.00 | 80 | 1008.1 |
| 20260507111830 | 6 | 114 | 0.0 | 0.0 | 0.00 | 0.00 | 0.00 | 79 | 1008.0 |
| 20260507111326 | 6 | 114 | 0.0 | 0.0 | 0.00 | 0.00 | 0.00 | 80 | 1007.8 |
| 20260507110823 | 6 | 114 | 0.0 | 0.0 | 0.00 | 0.00 | 0.00 | 80 | 1007.8 |
| 20260507110319 | 6 | 114 | 0.0 | 0.0 | 0.00 | 0.00 | 0.00 | 79 | 1007.8 |
| 20260507105816 | 6 | 114 | 0.0 | 0.0 | 0.00 | 0.00 | 0.00 | 79 | 1007.8 |
| 20260507105312 | 6 | 114 | 0.0 | 0.0 | 0.00 | 0.00 | 0.00 | 78 | 1007.7 |
| 20260507104809 | 6 | 114 | 0.0 | 0.0 | 0.00 | 0.00 | 0.00 | 79 | 1007.5 |
| 20260507104306 | 6 | 114 | 0.0 | 1.6 | 0.00 | 0.00 | 0.00 | 80 | 1007.6 |
| 20260507103802 | 6 | 114 | 0.0 | 0.0 | 0.00 | 0.00 | 0.00 | 80 | 1007.5 |
| 20260507103258 | 6 | 114 | 0.0 | 0.0 | 0.00 | 0.00 | 0.00 | 79 | 1007.7 |
| 20260507102755 | 6 | 114 | 0.0 | 0.0 | 0.00 | 0.00 | 0.00 | 80 | 1007.4 |
| 20260507102252 | 6 | 114 | 0.0 | 0.0 | 0.00 | 0.00 | 0.00 | 80 | 1007.6 |
| 20260507101748 | 6 | 114 | 0.0 | 0.0 | 0.00 | 0.00 | 0.00 | 80 | 1007.5 |
| 20260507101243 | 6 | 114 | 0.0 | 1.6 | 0.00 | 0.00 | 0.00 | 82 | 1007.6 |
| 20260507100740 | 6 | 114 | 0.0 | 0.0 | 0.00 | 0.00 | 0.00 | 83 | 1007.4 |
| 20260507100239 | 5 | 114 | 0.0 | 0.0 | 0.00 | 0.00 | 0.00 | 81 | 1007.5 |
| 20260507095736 | 5 | 114 | 0.0 | 0.0 | 0.00 | 0.00 | 0.00 | 81 | 1007.5 |
| 20260507095232 | 5 | 114 | 0.0 | 0.0 | 0.00 | 0.00 | 0.00 | 81 | 1007.6 |
| 20260507094729 | 6 | 114 | 0.0 | 0.0 | 0.00 | 0.00 | 0.00 | 81 | 1007.5 |
| 20260507094226 | 6 | 114 | 0.0 | 0.0 | 0.00 | 0.00 | 0.00 | 81 | 1007.5 |
| 20260507093723 | 6 | 114 | 0.0 | 0.0 | 0.00 | 0.00 | 0.00 | 80 | 1007.4 |
| 20260507093222 | 6 | 114 | 0.0 | 0.0 | 0.00 | 0.00 | 0.00 | 81 | 1007.5 |
| 20260507092719 | 6 | 114 | 0.0 | 0.0 | 0.00 | 0.00 | 0.00 | 80 | 1007.5 |
| 20260507092215 | 6 | 114 | 0.0 | 0.0 | 0.00 | 0.00 | 0.00 | 79 | 1007.6 |
| 20260507091711 | 6 | 114 | 0.0 | 0.0 | 0.00 | 0.00 | 0.00 | 80 | 1007.7 |
| 20260507091208 | 6 | 114 | 0.0 | 0.0 | 0.00 | 0.00 | 0.00 | 81 | 1007.6 |
| 20260507090703 | 6 | 114 | 0.0 | 0.0 | 0.00 | 0.00 | 0.00 | 81 | 1007.6 |
| 20260507090200 | 5 | 114 | 0.0 | 1.6 | 0.00 | 0.00 | 0.00 | 83 | 1007.5 |
| 20260507085657 | 5 | 113 | 0.0 | 0.0 | 0.00 | 0.00 | 0.00 | 86 | 1007.6 |
| 20260507085154 | 5 | 113 | 0.0 | 0.0 | 0.00 | 0.00 | 0.00 | 88 | 1007.7 |
| 20260507084651 | 5 | 113 | 0.0 | 0.0 | 0.00 | 0.00 | 0.00 | 90 | 1007.6 |
| 20260507084147 | 5 | 113 | 0.0 | 0.0 | 0.00 | 0.00 | 0.00 | 90 | 1007.4 |
| 20260507083644 | 5 | 113 | 0.0 | 0.0 | 0.00 | 0.00 | 0.00 | 91 | 1007.7 |
| 20260507083141 | 5 | 113 | 0.0 | 0.0 | 0.00 | 0.00 | 0.00 | 91 | 1007.7 |
| 20260507082637 | 4 | 113 | 0.0 | 1.6 | 0.00 | 0.00 | 0.00 | 91 | 1008.0 |
| 20260507082134 | 4 | 113 | 0.0 | 0.0 | 0.00 | 0.00 | 0.00 | 91 | 1007.6 |
| 20260507081631 | 4 | 113 | 0.0 | 0.0 | 0.00 | 0.00 | 0.00 | 91 | 1007.7 |
| 20260507081127 | 4 | 113 | 0.0 | 0.0 | 0.00 | 0.00 | 0.00 | 91 | 1007.7 |
| 20260507080623 | 4 | 113 | 0.0 | 0.0 | 0.00 | 0.00 | 0.00 | 91 | 1007.7 |
| 20260507080120 | 4 | 113 | 0.0 | 0.0 | 0.00 | 0.00 | 0.00 | 90 | 1007.7 |
| 20260507075620 | 4 | 113 | 0.0 | 0.0 | 0.00 | 0.00 | 0.00 | 90 | 1007.5 |